Flag for Germany Weather past 2 weeks in Vreden, North Rhine-Westphalia, Germany

Now
78 °F

Passing clouds.


Feels Like: 79 °F
Forecast: 62 / 79 °F
Wind: 7 mph from Northeast

Location: Twenthe

Current Time: Jul 22, 2014 at 3:32:05 PM

Latest Report: Jul 22, 2014 at 2:00 PM


Visibility: 13 mi

Pressure: 30.09 "Hg

Humidity: 62%

Dew point: 64 °F

Location of VredenLocation

Historic Weather in Vreden — Graph

°F

Vreden temperature yesterday

Maximum temperature yesterday: 68 °F (at 9:00 PM)
Minimum temperature yesterday: 66 °F (at 4:00 AM)
Average temperature yesterday: 67 °F

Past Weeks' High & Low Weather Summary

 TemperatureHumidityPressure
High92 °F (Jul 19, 4:00 PM)100% (Jul 10, 2:00 AM)30.20 "Hg (Jul 10, 2:00 AM)
Low52 °F (Jul 12, 6:00 AM)28% (Jul 19, 4:00 PM)29.66 "Hg (Jul 9, 5:00 PM)
Average68 °F79%29.94 "Hg
* Reported Jul 7 2:00 PM — Jul 22 2:00 PM, Vreden, Weather by CustomWeather, © 2014

Note: Actual official high and low records may vary slightly from our data, if they occured in-between our weather recording intervals... More about our weather records

Advertising

Vreden weather history for previous 24 hours

 ConditionsComfort  
Time TempWeatherWind HumidityBarometerVisibility
2:00 PM
Jul 22
78 °FPassing clouds.7 mph62%30.09 "Hg13 mi
1:00 PM75 °FScattered clouds.7 mph66%30.09 "Hg14 mi
12:00 PM72 °FPartly sunny.6 mph74%30.09 "Hg9 mi
11:00 AM70 °FFog.5 mph80%30.08 "Hg6 mi
10:00 AM65 °FFog.6 mph86%30.08 "Hg5 mi
9:00 AM64 °FFog.7 mph90%30.06 "Hg5 mi
8:00 AM63 °FFog.3 mph92%30.05 "Hg5 mi
7:00 AM62 °FFog.3 mph95%30.04 "Hg5 mi
6:00 AM61 °FPassing clouds.5 mph94%30.03 "Hg6 mi
5:00 AM62 °FClear.5 mph95%30.01 "Hg6 mi
3:00 AM66 °FOvercast.3 mph93%30.00 "Hg6 mi
2:00 AM65 °FFog.2 mph98%29.99 "Hg1 mi
1:00 AM66 °FOvercast.1 mph99%29.99 "Hg1 mi
12:00 AM66 °FLight rain. Overcast.2 mph98%29.97 "Hg2 mi
11:00 PM
Jul 21
67 °FFog.2 mph98%29.97 "Hg2 mi
10:00 PM67 °FFog.2 mph98%29.96 "Hg2 mi
9:00 PM68 °FFog.3 mph97%29.96 "Hg2 mi
8:00 PM67 °FLow clouds.2 mph98%29.95 "Hg2 mi
7:00 PM67 °FLow clouds.2 mph98%29.94 "Hg2 mi
6:00 PM66 °FRain showers. Low clouds.2 mph98%29.94 "Hg2 mi
5:00 PM66 °FLow clouds.2 mph96%29.93 "Hg5 mi
4:00 PM68 °FLow clouds.5 mph87%29.93 "Hg9 mi
Weather by CustomWeather, © 2014

See weather overviewHow to use our weather pages